Time,TemperatureF,DewpointF,PressureIn,WindDirection,WindDirectionDegrees,WindSpeedMPH,WindSpeedGustMPH,Humidity,HourlyPrecipIn,Conditions,Clouds,dailyrainin,SoftwareType,DateUTC
2013-03-21 00:03:00,71.0,60.0,31.77,North,9,6.0,17.0,69,0.00,,,0.00,,2013-03-21 04:03:00,
2013-03-21 00:13:00,71.0,60.0,31.77,North,9,6.0,17.0,69,0.00,,,0.00,,2013-03-21 04:13:00,
2013-03-21 00:23:00,71.0,60.0,31.77,North,3,0.0,6.0,68,0.00,,,0.00,,2013-03-21 04:23:00,
2013-03-21 00:33:00,71.0,60.0,31.77,North,351,1.0,6.0,69,0.00,,,0.00,,2013-03-21 04:33:00,
2013-03-21 00:43:00,71.0,60.0,31.77,North,351,1.0,6.0,69,0.00,,,0.00,,2013-03-21 04:43:00,
2013-03-21 00:53:00,70.0,60.0,31.77,North,350,0.0,0.0,70,0.00,,,0.00,,2013-03-21 04:53:00,
2013-03-21 01:03:00,70.0,60.0,31.77,North,350,0.0,0.0,71,0.00,,,0.00,,2013-03-21 05:03:00,
2013-03-21 01:12:00,70.0,60.0,31.77,North,350,0.0,0.0,71,0.00,,,0.00,,2013-03-21 05:12:00,
2013-03-21 01:22:00,70.0,61.0,31.77,North,350,0.0,0.0,72,0.00,,,0.00,,2013-03-21 05:22:00,
2013-03-21 01:32:00,70.0,61.0,31.77,NNW,341,0.0,1.0,74,0.00,,,0.00,,2013-03-21 05:32:00,
2013-03-21 01:44:00,70.0,61.0,31.77,NW,308,5.0,7.0,73,0.00,,,0.00,,2013-03-21 05:44:00,
2013-03-21 01:52:00,70.0,61.0,31.77,NW,308,5.0,7.0,73,0.00,,,0.00,,2013-03-21 05:52:00,
2013-03-21 02:03:00,70.0,61.0,31.78,WNW,292,5.0,7.0,74,0.00,,,0.00,,2013-03-21 06:03:00,
2013-03-21 02:12:00,70.0,61.0,31.78,WNW,292,5.0,7.0,74,0.00,,,0.00,,2013-03-21 06:12:00,
2013-03-21 02:22:00,70.0,62.0,26.41,NW,311,3.0,7.0,75,0.00,,,0.00,,2013-03-21 06:22:00,
2013-03-21 02:32:00,70.0,62.0,26.41,NW,308,3.0,6.0,75,0.00,,,0.00,,2013-03-21 06:32:00,
2013-03-21 02:42:00,70.0,62.0,26.41,NW,308,3.0,6.0,75,0.00,,,0.00,,2013-03-21 06:42:00,
2013-03-21 02:52:00,70.0,62.0,26.41,NW,305,5.0,9.0,75,0.00,,,0.00,,2013-03-21 06:52:00,
2013-03-21 03:02:00,70.0,62.0,26.41,WNW,303,5.0,11.0,75,0.00,,,0.00,,2013-03-21 07:02:00,
2013-03-21 03:12:00,70.0,62.0,26.41,WNW,303,5.0,11.0,75,0.00,,,0.00,,2013-03-21 07:12:00,
2013-03-21 03:22:00,70.0,62.0,26.43,NW,312,4.0,8.0,76,0.00,,,0.00,,2013-03-21 07:22:00,
2013-03-21 03:32:00,70.0,62.0,26.43,NW,326,2.0,6.0,76,0.00,,,0.00,,2013-03-21 07:32:00,
2013-03-21 03:42:00,70.0,62.0,26.43,NW,326,2.0,6.0,76,0.00,,,0.00,,2013-03-21 07:42:00,
2013-03-21 03:53:00,70.0,62.0,26.43,WNW,303,0.0,3.0,76,0.00,,,0.00,,2013-03-21 07:53:00,
2013-03-21 04:02:00,70.0,62.0,26.43,NW,304,2.0,5.0,76,0.00,,,0.00,,2013-03-21 08:02:00,
2013-03-21 04:13:00,70.0,62.0,26.43,WNW,292,2.0,5.0,77,0.00,,,0.00,,2013-03-21 08:13:00,
2013-03-21 04:23:00,70.0,62.0,26.43,WNW,292,2.0,5.0,77,0.00,,,0.00,,2013-03-21 08:23:00,
2013-03-21 04:33:00,70.0,63.0,26.43,NW,307,4.0,6.0,78,0.00,,,0.00,,2013-03-21 08:33:00,
2013-03-21 04:42:00,70.0,63.0,26.43,NW,307,4.0,6.0,78,0.00,,,0.00,,2013-03-21 08:42:00,
2013-03-21 04:52:00,70.0,62.0,26.43,NW,312,3.0,6.0,77,0.00,,,0.00,,2013-03-21 08:52:00,
2013-03-21 05:02:00,70.0,62.0,26.43,NW,317,0.0,5.0,77,0.00,,,0.00,,2013-03-21 09:02:00,
2013-03-21 05:11:00,70.0,62.0,26.43,NW,317,0.0,5.0,77,0.00,,,0.00,,2013-03-21 09:11:00,
2013-03-21 05:22:00,70.0,63.0,29.84,North,356,2.0,7.0,78,0.00,,,0.00,,2013-03-21 09:22:00,
2013-03-21 05:33:00,70.0,63.0,29.83,North,354,4.0,10.0,79,0.00,,,0.00,,2013-03-21 09:33:00,
2013-03-21 05:43:00,70.0,63.0,29.83,North,354,4.0,10.0,79,0.00,,,0.00,,2013-03-21 09:43:00,
2013-03-21 05:53:00,70.0,64.0,29.84,North,354,2.0,6.0,81,0.00,,,0.00,,2013-03-21 09:53:00,
2013-03-21 06:03:00,70.0,64.0,29.84,North,355,3.0,7.0,82,0.00,,,0.00,,2013-03-21 10:03:00,
2013-03-21 06:12:00,70.0,64.0,29.84,North,355,3.0,7.0,82,0.00,,,0.00,,2013-03-21 10:12:00,
2013-03-21 06:23:00,70.0,65.0,28.47,NNE,19,3.0,13.0,84,0.00,,,0.00,,2013-03-21 10:23:00,
2013-03-21 06:33:00,70.0,65.0,28.47,NNE,25,6.0,13.0,84,0.00,,,0.00,,2013-03-21 10:33:00,
2013-03-21 06:42:00,70.0,65.0,28.47,NNE,25,6.0,13.0,84,0.00,,,0.00,,2013-03-21 10:42:00,
2013-03-21 06:53:00,69.0,65.0,27.84,NE,41,7.0,15.0,86,0.00,,,0.00,,2013-03-21 10:53:00,
2013-03-21 07:03:00,69.0,65.0,26.41,NE,40,6.0,17.0,87,0.00,,,0.00,,2013-03-21 11:03:00,
2013-03-21 07:12:00,69.0,65.0,26.41,NE,40,6.0,17.0,87,0.00,,,0.00,,2013-03-21 11:12:00,
2013-03-21 07:22:00,69.0,65.0,28.48,NE,56,8.0,15.0,87,0.00,,,0.00,,2013-03-21 11:22:00,
2013-03-21 07:33:00,68.0,64.0,28.48,ENE,57,10.0,15.0,88,0.00,,,0.00,,2013-03-21 11:33:00,
2013-03-21 07:43:00,68.0,64.0,28.48,ENE,57,10.0,15.0,88,0.00,,,0.00,,2013-03-21 11:43:00,
2013-03-21 07:53:00,68.0,65.0,29.88,NE,48,10.0,17.0,89,0.00,,,0.00,,2013-03-21 11:53:00,
2013-03-21 08:03:00,67.0,64.0,29.89,NE,46,8.0,16.0,89,0.00,,,0.00,,2013-03-21 12:03:00,
2013-03-21 08:12:00,67.0,64.0,29.89,NE,46,8.0,16.0,89,0.00,,,0.00,,2013-03-21 12:12:00,
2013-03-21 08:22:00,67.0,64.0,29.88,NE,44,12.0,17.0,89,0.00,,,0.00,,2013-03-21 12:22:00,
2013-03-21 08:33:00,67.0,64.0,29.90,ENE,63,9.0,17.0,89,0.00,,,0.00,,2013-03-21 12:33:00,
2013-03-21 08:43:00,67.0,64.0,29.90,ENE,63,9.0,17.0,89,0.00,,,0.00,,2013-03-21 12:43:00,
2013-03-21 08:53:00,68.0,64.0,29.91,NNE,12,2.0,14.0,87,0.00,,,0.00,,2013-03-21 12:53:00,
2013-03-21 09:02:00,68.0,64.0,29.91,NE,38,6.0,11.0,86,0.00,,,0.00,,2013-03-21 13:02:00,
2013-03-21 09:12:00,68.0,64.0,29.91,NE,38,6.0,11.0,86,0.00,,,0.00,,2013-03-21 13:12:00,
2013-03-21 09:22:00,69.0,63.0,29.92,NNE,31,8.0,14.0,82,0.00,,,0.00,,2013-03-21 13:22:00,
2013-03-21 09:32:00,69.0,63.0,29.92,NE,52,8.0,16.0,81,0.00,,,0.00,,2013-03-21 13:32:00,
2013-03-21 09:42:00,69.0,63.0,29.92,NE,52,8.0,16.0,81,0.00,,,0.00,,2013-03-21 13:42:00,
2013-03-21 09:53:00,68.0,61.0,29.93,NNE,28,12.0,17.0,77,0.00,,,0.00,,2013-03-21 13:53:00,
2013-03-21 10:02:00,69.0,62.0,29.94,NE,38,9.0,14.0,78,0.00,,,0.00,,2013-03-21 14:02:00,
2013-03-21 10:12:00,69.0,61.0,26.41,ENE,64,8.0,14.0,77,0.00,,,0.00,,2013-03-21 14:12:00,
2013-03-21 10:22:00,69.0,61.0,26.41,ENE,64,8.0,14.0,77,0.00,,,0.00,,2013-03-21 14:22:00,
2013-03-21 10:32:00,70.0,62.0,32.30,NE,50,6.0,12.0,75,0.00,,,0.00,,2013-03-21 14:32:00,
2013-03-21 10:42:00,70.0,62.0,32.30,NE,50,6.0,12.0,75,0.00,,,0.00,,2013-03-21 14:42:00,
2013-03-21 10:52:00,71.0,62.0,32.30,ENE,65,4.0,9.0,74,0.00,,,0.00,,2013-03-21 14:52:00,
2013-03-21 11:03:00,71.0,63.0,32.30,East,84,6.0,13.0,75,0.00,,,0.00,,2013-03-21 15:03:00,
2013-03-21 11:12:00,72.0,64.0,32.30,ENE,77,2.0,10.0,76,0.00,,,0.00,,2013-03-21 15:12:00,
2013-03-21 11:22:00,72.0,64.0,32.30,ENE,77,2.0,10.0,76,0.00,,,0.00,,2013-03-21 15:22:00,
2013-03-21 11:33:00,72.0,62.0,32.30,ENE,71,3.0,11.0,72,0.00,,,0.00,,2013-03-21 15:33:00,
2013-03-21 11:42:00,72.0,62.0,32.30,ENE,71,3.0,11.0,72,0.00,,,0.00,,2013-03-21 15:42:00,
2013-03-21 11:53:00,72.0,62.0,32.30,ENE,71,3.0,11.0,72,0.00,,,0.00,,2013-03-21 15:53:00,
2013-03-21 12:03:00,72.0,63.0,26.41,ENE,78,5.0,11.0,73,0.00,,,0.00,,2013-03-21 16:03:00,
2013-03-21 12:12:00,72.0,63.0,26.41,ENE,78,5.0,11.0,73,0.00,,,0.00,,2013-03-21 16:12:00,
2013-03-21 12:23:00,73.0,63.0,26.41,ENE,68,6.0,11.0,71,0.00,,,0.00,,2013-03-21 16:23:00,
2013-03-21 12:33:00,73.0,63.0,26.41,NE,43,4.0,10.0,71,0.00,,,0.00,,2013-03-21 16:33:00,
2013-03-21 12:42:00,73.0,63.0,26.41,NE,43,4.0,10.0,71,0.00,,,0.00,,2013-03-21 16:42:00,
2013-03-21 12:53:00,74.0,63.0,29.56,East,93,0.0,11.0,68,0.00,,,0.00,,2013-03-21 16:53:00,
2013-03-21 13:02:00,74.0,63.0,29.56,East,90,4.0,11.0,69,0.00,,,0.00,,2013-03-21 17:02:00,
2013-03-21 13:12:00,74.0,63.0,29.56,East,90,4.0,11.0,69,0.00,,,0.00,,2013-03-21 17:12:00,
2013-03-21 13:23:00,75.0,63.0,26.40,ENE,73,6.0,10.0,66,0.00,,,0.00,,2013-03-21 17:23:00,
2013-03-21 13:33:00,75.0,62.0,26.40,ENE,59,3.0,10.0,65,0.00,,,0.00,,2013-03-21 17:33:00,
2013-03-21 13:43:00,75.0,62.0,26.40,ENE,59,3.0,10.0,65,0.00,,,0.00,,2013-03-21 17:43:00,
2013-03-21 13:53:00,75.0,62.0,26.40,NE,50,1.0,8.0,63,0.00,,,0.00,,2013-03-21 17:53:00,
2013-03-21 14:02:00,75.0,62.0,26.40,East,86,2.0,10.0,63,0.00,,,0.00,,2013-03-21 18:02:00,
2013-03-21 14:12:00,75.0,62.0,26.40,East,86,2.0,10.0,63,0.00,,,0.00,,2013-03-21 18:12:00,
2013-03-21 14:23:00,76.0,62.0,26.40,East,95,1.0,7.0,61,0.00,,,0.00,,2013-03-21 18:23:00,
2013-03-21 14:32:00,76.0,61.0,26.40,ENE,75,2.0,5.0,60,0.00,,,0.00,,2013-03-21 18:32:00,
2013-03-21 14:42:00,76.0,61.0,26.40,ENE,75,2.0,5.0,60,0.00,,,0.00,,2013-03-21 18:42:00,
2013-03-21 14:52:00,78.0,63.0,25.63,ESE,115,0.0,5.0,60,0.00,,,0.00,,2013-03-21 18:52:00,
2013-03-21 15:02:00,78.0,62.0,25.63,East,98,0.0,4.0,58,0.00,,,0.00,,2013-03-21 19:02:00,
2013-03-21 15:12:00,78.0,62.0,25.63,East,98,0.0,4.0,58,0.00,,,0.00,,2013-03-21 19:12:00,
2013-03-21 15:22:00,78.0,61.0,25.63,ESE,105,0.0,3.0,56,0.00,,,0.00,,2013-03-21 19:22:00,
2013-03-21 15:32:00,78.0,61.0,25.63,ESE,119,0.0,2.0,56,0.00,,,0.00,,2013-03-21 19:32:00,
2013-03-21 15:43:00,78.0,61.0,25.63,ESE,119,0.0,2.0,56,0.00,,,0.00,,2013-03-21 19:43:00,
2013-03-21 15:53:00,78.0,62.0,25.63,ESE,115,0.0,4.0,58,0.00,,,0.00,,2013-03-21 19:53:00,
2013-03-21 16:02:00,78.0,62.0,28.98,ESE,115,0.0,0.0,57,0.00,,,0.00,,2013-03-21 20:02:00,
2013-03-21 16:12:00,78.0,62.0,28.98,ESE,115,0.0,0.0,57,0.00,,,0.00,,2013-03-21 20:12:00,
2013-03-21 16:22:00,77.0,62.0,25.58,ESE,115,0.0,2.0,60,0.00,,,0.00,,2013-03-21 20:22:00,
2013-03-21 16:33:00,77.0,62.0,26.41,ESE,115,0.0,1.0,60,0.00,,,0.00,,2013-03-21 20:33:00,
2013-03-21 16:42:00,77.0,62.0,26.41,ESE,115,0.0,1.0,60,0.00,,,0.00,,2013-03-21 20:42:00,
2013-03-21 16:53:00,76.0,61.0,26.41,WSW,250,0.0,0.0,60,0.00,,,0.00,,2013-03-21 20:53:00,
2013-03-21 17:02:00,76.0,61.0,26.41,SSE,151,0.0,0.0,60,0.00,,,0.00,,2013-03-21 21:02:00,
2013-03-21 17:12:00,76.0,61.0,26.41,SSE,151,0.0,0.0,60,0.00,,,0.00,,2013-03-21 21:12:00,
2013-03-21 17:22:00,76.0,61.0,26.41,SSE,151,0.0,0.0,60,0.00,,,0.00,,2013-03-21 21:22:00,
2013-03-21 17:33:00,75.0,61.0,26.64,SSE,151,0.0,1.0,62,0.00,,,0.00,,2013-03-21 21:33:00,
2013-03-21 17:43:00,75.0,61.0,26.64,SSE,151,0.0,1.0,62,0.00,,,0.00,,2013-03-21 21:43:00,
2013-03-21 17:53:00,74.0,60.0,26.41,SSE,151,0.0,0.0,62,0.00,,,0.00,,2013-03-21 21:53:00,
2013-03-21 18:03:00,74.0,61.0,26.41,SSE,148,0.0,0.0,64,0.00,,,0.00,,2013-03-21 22:03:00,
2013-03-21 18:13:00,74.0,61.0,26.41,SSE,148,0.0,0.0,64,0.00,,,0.00,,2013-03-21 22:13:00,
2013-03-21 18:23:00,73.0,60.0,26.41,SE,142,0.0,1.0,63,0.00,,,0.00,,2013-03-21 22:23:00,
2013-03-21 18:31:00,73.0,61.0,26.41,SE,142,0.0,0.0,65,0.00,,,0.00,,2013-03-21 22:31:00,
2013-03-21 18:33:00,73.0,61.0,26.41,SE,141,0.0,0.0,65,0.00,,,0.00,,2013-03-21 22:33:00,
2013-03-21 18:42:00,73.0,61.0,26.41,SE,141,0.0,0.0,65,0.00,,,0.00,,2013-03-21 22:42:00,
2013-03-21 18:53:00,73.0,61.0,26.41,SE,142,0.0,0.0,65,0.00,,,0.00,,2013-03-21 22:53:00,
2013-03-21 19:02:00,73.0,61.0,26.41,SE,142,0.0,0.0,65,0.00,,,0.00,,2013-03-21 23:02:00,
2013-03-21 19:12:00,73.0,61.0,26.41,SE,142,0.0,0.0,65,0.00,,,0.00,,2013-03-21 23:12:00,
2013-03-21 19:22:00,73.0,61.0,26.41,SE,142,0.0,0.0,65,0.00,,,0.00,,2013-03-21 23:22:00,